| time (UTC) | temp F | wind direction | speed MPH | gust MPH | rain 1hr in | rain 24hr in | rain mn in | humidity % | barometer mb |
| 20260902025052 | 69 | 347 | 10.0 | 13.0 | 0.00 | 0.00 | 0.00 | 82 | 1012.6 |
| 20260902024551 | 69 | 7 | 11.0 | 12.0 | 0.00 | 0.00 | 0.00 | 82 | 1012.6 |
| 20260902024318 | 69 | 281 | 9.0 | 10.0 | 0.00 | 0.00 | 0.00 | 82 | 1012.5 |
| 20260902023818 | 69 | 341 | 5.0 | 8.0 | 0.00 | 0.00 | 0.00 | 82 | 1012.4 |
| 20260902022551 | 69 | 317 | 4.0 | 9.0 | 0.00 | 0.00 | 0.00 | 82 | 1012.5 |
| 20260902022315 | 69 | 320 | 8.0 | 9.0 | 0.00 | 0.00 | 0.00 | 83 | 1012.4 |
| 20260902021814 | 70 | 280 | 3.0 | 9.0 | 0.00 | 0.00 | 0.00 | 82 | 1012.5 |
| 20260902021051 | 70 | 261 | 3.0 | 9.0 | 0.00 | 0.00 | 0.00 | 82 | 1012.5 |
| 20260902020550 | 70 | 231 | 2.0 | 9.0 | 0.00 | 0.00 | 0.00 | 82 | 1012.5 |
| 20260902020050 | 71 | 319 | 2.0 | 8.0 | 0.00 | 0.00 | 0.00 | 81 | 1012.6 |
| 20260902015551 | 71 | 286 | 3.0 | 8.0 | 0.00 | 0.00 | 0.00 | 81 | 1012.5 |
| 20260902015050 | 71 | 253 | 5.0 | 8.0 | 0.00 | 0.00 | 0.00 | 80 | 1012.4 |
| 20260902014549 | 71 | 329 | 1.0 | 8.0 | 0.00 | 0.00 | 0.00 | 80 | 1012.4 |
| 20260902014050 | 72 | 262 | 2.0 | 10.0 | 0.00 | 0.00 | 0.00 | 79 | 1012.4 |
| 20260902013809 | 72 | 282 | 4.0 | 10.0 | 0.00 | 0.00 | 0.00 | 79 | 1012.4 |
| 20260902013051 | 72 | 291 | 3.0 | 8.0 | 0.00 | 0.00 | 0.00 | 78 | 1012.4 |
| 20260902012549 | 72 | 278 | 3.0 | 8.0 | 0.00 | 0.00 | 0.00 | 77 | 1012.4 |
| 20260902012048 | 72 | 285 | 4.0 | 8.0 | 0.00 | 0.00 | 0.00 | 76 | 1012.4 |
| 20260902011550 | 73 | 316 | 5.0 | 7.0 | 0.00 | 0.00 | 0.00 | 77 | 1012.4 |
| 20260902011051 | 73 | 352 | 4.0 | 9.0 | 0.00 | 0.00 | 0.00 | 76 | 1012.4 |
| 20260902010549 | 73 | 322 | 5.0 | 9.0 | 0.00 | 0.00 | 0.00 | 77 | 1012.5 |
| 20260902010049 | 73 | 314 | 4.0 | 8.0 | 0.00 | 0.00 | 0.00 | 76 | 1012.5 |
| 20260902005550 | 73 | 236 | 3.0 | 9.0 | 0.00 | 0.00 | 0.00 | 76 | 1012.5 |
| 20260902005049 | 73 | 353 | 4.0 | 10.0 | 0.00 | 0.00 | 0.00 | 76 | 1012.5 |
| 20260902004549 | 73 | 266 | 2.0 | 10.0 | 0.00 | 0.00 | 0.00 | 76 | 1012.5 |
| 20260902004049 | 73 | 323 | 5.0 | 7.0 | 0.00 | 0.00 | 0.00 | 75 | 1012.5 |
| 20260902003549 | 73 | 266 | 3.0 | 10.0 | 0.00 | 0.00 | 0.00 | 75 | 1012.5 |
| 20260902003049 | 73 | 237 | 3.0 | 10.0 | 0.00 | 0.00 | 0.00 | 75 | 1012.5 |
| 20260902002549 | 74 | 345 | 3.0 | 10.0 | 0.00 | 0.00 | 0.00 | 76 | 1012.5 |
| 20260902002048 | 74 | 289 | 7.0 | 10.0 | 0.00 | 0.00 | 0.00 | 75 | 1012.5 |
| 20260902001547 | 74 | 289 | 6.0 | 9.0 | 0.00 | 0.00 | 0.00 | 75 | 1012.5 |
| 20260902001048 | 74 | 317 | 4.0 | 9.0 | 0.00 | 0.00 | 0.00 | 74 | 1012.6 |
| 20260902000548 | 74 | 291 | 3.0 | 9.0 | 0.00 | 0.00 | 0.00 | 75 | 1012.6 |
| 20260902000048 | 74 | 277 | 4.0 | 9.0 | 0.00 | 0.00 | 0.00 | 74 | 1012.5 |
| 20260901235808 | 74 | 319 | 4.0 | 13.0 | 0.00 | 0.00 | 0.00 | 74 | 1012.6 |
| 20260901235313 | 74 | 284 | 5.0 | 13.0 | 0.00 | 0.00 | 0.00 | 76 | 1012.6 |
| 20260901234548 | 74 | 277 | 5.0 | 12.0 | 0.00 | 0.00 | 0.00 | 76 | 1012.5 |
| 20260901234047 | 74 | 322 | 5.0 | 10.0 | 0.00 | 0.00 | 0.00 | 76 | 1012.6 |
| 20260901233547 | 74 | 306 | 6.0 | 9.0 | 0.00 | 0.00 | 0.00 | 75 | 1012.6 |
| 20260901233048 | 74 | 272 | 4.0 | 14.0 | 0.00 | 0.00 | 0.00 | 75 | 1012.6 |
| 20260901232548 | 74 | 333 | 4.0 | 14.0 | 0.00 | 0.00 | 0.00 | 76 | 1012.7 |
| 20260901232047 | 74 | 309 | 6.0 | 13.0 | 0.00 | 0.00 | 0.00 | 75 | 1012.7 |
| 20260901231547 | 74 | 303 | 4.0 | 12.0 | 0.00 | 0.00 | 0.00 | 76 | 1012.7 |
| 20260901231048 | 74 | 281 | 4.0 | 12.0 | 0.00 | 0.00 | 0.00 | 75 | 1012.8 |
| 20260901230807 | 74 | 279 | 5.0 | 12.0 | 0.00 | 0.00 | 0.00 | 75 | 1012.7 |
| 20260901230048 | 74 | 291 | 4.0 | 12.0 | 0.00 | 0.00 | 0.00 | 76 | 1012.8 |
| 20260901225048 | 74 | 294 | 6.0 | 13.0 | 0.00 | 0.00 | 0.00 | 76 | 1012.9 |
| 20260901224547 | 74 | 348 | 7.0 | 12.0 | 0.00 | 0.00 | 0.00 | 75 | 1012.9 |
| 20260901224046 | 74 | 283 | 5.0 | 14.0 | 0.00 | 0.00 | 0.00 | 76 | 1013.0 |
| 20260901223547 | 74 | 311 | 3.0 | 14.0 | 0.00 | 0.00 | 0.00 | 76 | 1012.9 |
| 20260901223050 | 74 | 300 | 5.0 | 12.0 | 0.00 | 0.00 | 0.00 | 75 | 1012.9 |
| 20260901222554 | 74 | 265 | 4.0 | 12.0 | 0.00 | 0.00 | 0.00 | 75 | 1012.9 |
| 20260901222045 | 75 | 255 | 5.0 | 10.0 | 0.00 | 0.00 | 0.00 | 75 | 1012.9 |
| 20260901221545 | 75 | 265 | 5.0 | 13.0 | 0.00 | 0.00 | 0.00 | 75 | 1013.0 |
| 20260901221043 | 75 | 242 | 9.0 | 14.0 | 0.00 | 0.00 | 0.00 | 75 | 1012.9 |
| 20260901220811 | 75 | 285 | 3.0 | 14.0 | 0.00 | 0.00 | 0.00 | 76 | 1013.0 |
| 20260901220044 | 75 | 318 | 8.0 | 14.0 | 0.00 | 0.00 | 0.00 | 75 | 1012.9 |
| 20260901215544 | 75 | 232 | 3.0 | 12.0 | 0.00 | 0.00 | 0.00 | 74 | 1012.9 |
| 20260901215043 | 75 | 13 | 7.0 | 13.0 | 0.00 | 0.00 | 0.00 | 74 | 1013.1 |
| 20260901214546 | 74 | 310 | 6.0 | 13.0 | 0.00 | 0.00 | 0.00 | 76 | 1013.1 |
| 20260901214044 | 74 | 274 | 8.0 | 16.0 | 0.00 | 0.00 | 0.00 | 75 | 1013.1 |
| 20260901213803 | 74 | 295 | 5.0 | 16.0 | 0.00 | 0.00 | 0.00 | 75 | 1013.1 |
| 20260901213043 | 74 | 255 | 4.0 | 15.0 | 0.00 | 0.00 | 0.00 | 75 | 1013.2 |
| 20260901212543 | 74 | 266 | 5.0 | 16.0 | 0.00 | 0.00 | 0.00 | 75 | 1013.2 |
| 20260901212308 | 74 | 310 | 5.0 | 16.0 | 0.00 | 0.00 | 0.00 | 76 | 1013.2 |
| 20260901211543 | 75 | 26 | 7.0 | 14.0 | 0.00 | 0.00 | 0.00 | 76 | 1013.1 |
| 20260901211043 | 75 | 4 | 6.0 | 14.0 | 0.00 | 0.00 | 0.00 | 77 | 1013.1 |
| 20260901210545 | 75 | 337 | 7.0 | 13.0 | 0.00 | 0.00 | 0.00 | 74 | 1013.2 |
| 20260901210044 | 75 | 256 | 7.0 | 12.0 | 0.00 | 0.00 | 0.00 | 76 | 1013.3 |
| 20260901205803 | 75 | 270 | 6.0 | 12.0 | 0.00 | 0.00 | 0.00 | 76 | 1013.3 |
| 20260901205310 | 75 | 235 | 7.0 | 12.0 | 0.00 | 0.00 | 0.00 | 75 | 1013.3 |
| 20260901204547 | 75 | 311 | 7.0 | 14.0 | 0.00 | 0.00 | 0.00 | 75 | 1013.3 |
| 20260901204044 | 75 | 291 | 2.0 | 15.0 | 0.00 | 0.00 | 0.00 | 75 | 1013.2 |
| 20260901203542 | 75 | 313 | 9.0 | 15.0 | 0.00 | 0.00 | 0.00 | 74 | 1013.3 |
| 20260901203043 | 75 | 359 | 3.0 | 16.0 | 0.00 | 0.00 | 0.00 | 73 | 1013.3 |
| 20260901202544 | 75 | 285 | 10.0 | 16.0 | 0.00 | 0.00 | 0.00 | 73 | 1013.3 |
| 20260901202043 | 75 | 295 | 5.0 | 12.0 | 0.00 | 0.00 | 0.00 | 75 | 1013.3 |
| 20260901201542 | 75 | 322 | 4.0 | 13.0 | 0.00 | 0.00 | 0.00 | 73 | 1013.4 |
| 20260901201042 | 75 | 340 | 8.0 | 15.0 | 0.00 | 0.00 | 0.00 | 73 | 1013.3 |
| 20260901200543 | 75 | 359 | 4.0 | 15.0 | 0.00 | 0.00 | 0.00 | 73 | 1013.5 |
| 20260901200346 | 76 | 338 | 6.0 | 13.0 | 0.00 | 0.00 | 0.00 | 74 | 1013.5 |
| 20260901195542 | 76 | 338 | 4.0 | 13.0 | 0.00 | 0.00 | 0.00 | 72 | 1013.5 |
| 20260901195041 | 76 | 261 | 5.0 | 15.0 | 0.00 | 0.00 | 0.00 | 72 | 1013.5 |
| 20260901194543 | 76 | 353 | 6.0 | 15.0 | 0.00 | 0.00 | 0.00 | 72 | 1013.5 |
| 20260901194041 | 76 | 300 | 6.0 | 9.0 | 0.00 | 0.00 | 0.00 | 73 | 1013.6 |
| 20260901141418 | 67 | 329 | 0.0 | 0.0 | 0.00 | 0.00 | 0.00 | 87 | 1013.1 |
| 20260901141141 | 67 | 308 | 0.0 | 0.0 | 0.00 | 0.00 | 0.00 | 88 | 1013.1 |
| 20260901140416 | 67 | 297 | 0.0 | 0.0 | 0.00 | 0.00 | 0.00 | 88 | 1013.0 |
| 20260901135915 | 67 | 277 | 0.0 | 0.0 | 0.00 | 0.00 | 0.00 | 89 | 1013.0 |
| 20260901135417 | 67 | 276 | 0.0 | 0.0 | 0.00 | 0.00 | 0.00 | 89 | 1013.0 |
| 20260901134916 | 67 | 327 | 0.0 | 0.0 | 0.00 | 0.00 | 0.00 | 89 | 1013.0 |
| 20260901134415 | 66 | 272 | 0.0 | 0.0 | 0.00 | 0.00 | 0.00 | 89 | 1013.0 |
| 20260901133916 | 66 | 281 | 0.0 | 0.0 | 0.00 | 0.00 | 0.00 | 89 | 1012.9 |
| 20260901133415 | 66 | 254 | 0.0 | 0.0 | 0.00 | 0.00 | 0.00 | 89 | 1012.8 |
| 20260901132917 | 66 | 234 | 0.0 | 0.0 | 0.00 | 0.00 | 0.00 | 89 | 1012.8 |
| 20260901131416 | 66 | 284 | 0.0 | 0.0 | 0.00 | 0.00 | 0.00 | 90 | 1012.7 |
| 20260901130415 | 67 | 249 | 0.0 | 0.0 | 0.00 | 0.00 | 0.00 | 90 | 1012.7 |
| 20260901125914 | 67 | 252 | 0.0 | 0.0 | 0.00 | 0.00 | 0.00 | 90 | 1012.7 |
| 20260901125416 | 67 | 253 | 0.0 | 0.0 | 0.00 | 0.00 | 0.00 | 90 | 1012.6 |
| 20260901124915 | 67 | 253 | 0.0 | 0.0 | 0.00 | 0.00 | 0.00 | 90 | 1012.6 |
| 20260901124635 | 67 | 244 | 0.0 | 0.0 | 0.00 | 0.00 | 0.00 | 90 | 1012.6 |
| 20260901123914 | 67 | 266 | 0.0 | 0.0 | 0.00 | 0.00 | 0.00 | 89 | 1012.5 |
| 20260901123415 | 67 | 323 | 0.0 | 0.0 | 0.00 | 0.00 | 0.00 | 89 | 1012.6 |
| 20260901122915 | 67 | 307 | 0.0 | 0.0 | 0.00 | 0.00 | 0.00 | 90 | 1012.6 |
| 20260901122414 | 67 | 268 | 0.0 | 2.0 | 0.00 | 0.00 | 0.00 | 89 | 1012.6 |
| 20260901121914 | 67 | 262 | 0.0 | 3.0 | 0.00 | 0.00 | 0.00 | 89 | 1012.6 |
| 20260901121642 | 67 | 205 | 2.0 | 5.0 | 0.00 | 0.00 | 0.00 | 89 | 1012.6 |
| 20260901120916 | 67 | 207 | 3.0 | 5.0 | 0.00 | 0.00 | 0.00 | 90 | 1012.6 |
| 20260901120414 | 67 | 189 | 3.0 | 3.0 | 0.00 | 0.00 | 0.00 | 91 | 1012.6 |
| 20260901115913 | 67 | 214 | 0.0 | 0.0 | 0.00 | 0.00 | 0.00 | 91 | 1012.5 |
| 20260901115415 | 67 | 206 | 0.0 | 0.0 | 0.00 | 0.00 | 0.00 | 91 | 1012.5 |
| 20260901114915 | 66 | 241 | 0.0 | 1.0 | 0.00 | 0.00 | 0.00 | 90 | 1012.4 |
| 20260901114634 | 66 | 251 | 0.0 | 2.0 | 0.00 | 0.00 | 0.00 | 90 | 1012.4 |
| 20260901114139 | 66 | 292 | 0.0 | 2.0 | 0.00 | 0.00 | 0.00 | 90 | 1012.3 |
| 20260901113638 | 67 | 324 | 1.0 | 2.0 | 0.00 | 0.00 | 0.00 | 90 | 1012.3 |
| 20260901112914 | 67 | 323 | 0.0 | 0.0 | 0.00 | 0.00 | 0.00 | 90 | 1012.4 |
| 20260901112414 | 67 | 290 | 0.0 | 0.0 | 0.00 | 0.00 | 0.00 | 90 | 1012.4 |
| 20260901111912 | 67 | 268 | 0.0 | 0.0 | 0.00 | 0.00 | 0.00 | 90 | 1012.4 |
| 20260901111636 | 67 | 301 | 0.0 | 1.0 | 0.00 | 0.00 | 0.00 | 90 | 1012.5 |
| 20260901110913 | 67 | 280 | 0.0 | 2.0 | 0.00 | 0.00 | 0.00 | 90 | 1012.5 |
| 20260901110413 | 67 | 273 | 0.0 | 2.0 | 0.00 | 0.00 | 0.00 | 90 | 1012.4 |
| 20260901105912 | 67 | 28 | 2.0 | 2.0 | 0.00 | 0.00 | 0.00 | 90 | 1012.4 |
| 20260901105632 | 67 | 354 | 0.0 | 0.0 | 0.00 | 0.00 | 0.00 | 90 | 1012.5 |
| 20260901104913 | 67 | 321 | 0.0 | 0.0 | 0.00 | 0.00 | 0.00 | 90 | 1012.4 |
| 20260901104413 | 67 | 306 | 0.0 | 0.0 | 0.00 | 0.00 | 0.00 | 91 | 1012.5 |
| 20260901103912 | 67 | 318 | 0.0 | 0.0 | 0.00 | 0.00 | 0.00 | 91 | 1012.5 |
| 20260901103634 | 67 | 277 | 0.0 | 0.0 | 0.00 | 0.00 | 0.00 | 91 | 1012.5 |
| 20260901102912 | 67 | 266 | 0.0 | 0.0 | 0.00 | 0.00 | 0.00 | 91 | 1012.6 |
| 20260901102635 | 67 | 257 | 0.0 | 0.0 | 0.00 | 0.00 | 0.00 | 91 | 1012.6 |
| 20260901101912 | 67 | 250 | 0.0 | 0.0 | 0.00 | 0.00 | 0.00 | 90 | 1012.7 |
| 20260901101636 | 67 | 245 | 0.0 | 0.0 | 0.00 | 0.00 | 0.00 | 90 | 1012.7 |
| 20260901100912 | 67 | 271 | 0.0 | 0.0 | 0.00 | 0.00 | 0.00 | 89 | 1012.6 |
| 20260901100409 | 68 | 276 | 0.0 | 0.0 | 0.00 | 0.00 | 0.00 | 89 | 1012.7 |
| 20260901100037 | 68 | 278 | 0.0 | 2.0 | 0.00 | 0.00 | 0.00 | 89 | 1012.7 |
| 20260901095536 | 68 | 292 | 0.0 | 2.0 | 0.00 | 0.00 | 0.00 | 88 | 1012.6 |
| 20260901095035 | 68 | 343 | 1.0 | 3.0 | 0.00 | 0.00 | 0.00 | 88 | 1012.7 |
| 20260901094535 | 68 | 20 | 1.0 | 3.0 | 0.00 | 0.00 | 0.00 | 89 | 1012.7 |
| 20260901094036 | 68 | 294 | 2.0 | 3.0 | 0.00 | 0.00 | 0.00 | 89 | 1012.6 |
| 20260901093536 | 68 | 280 | 0.0 | 2.0 | 0.00 | 0.00 | 0.00 | 89 | 1012.6 |
| 20260901093257 | 68 | 327 | 0.0 | 5.0 | 0.00 | 0.00 | 0.00 | 89 | 1012.6 |
| 20260901092534 | 68 | 310 | 2.0 | 5.0 | 0.00 | 0.00 | 0.00 | 89 | 1012.6 |
| 20260901092037 | 68 | 299 | 3.0 | 6.0 | 0.00 | 0.00 | 0.00 | 89 | 1012.6 |
| 20260901091535 | 68 | 273 | 4.0 | 6.0 | 0.00 | 0.00 | 0.00 | 89 | 1012.5 |
| 20260901091302 | 68 | 274 | 4.0 | 5.0 | 0.00 | 0.00 | 0.00 | 89 | 1012.6 |
| 20260901090534 | 68 | 325 | 3.0 | 5.0 | 0.00 | 0.00 | 0.00 | 90 | 1012.7 |
| 20260901090256 | 68 | 24 | 2.0 | 6.0 | 0.00 | 0.00 | 0.00 | 90 | 1012.7 |
| 20260901085536 | 67 | 28 | 2.0 | 6.0 | 0.00 | 0.00 | 0.00 | 90 | 1012.8 |
| 20260901084533 | 67 | 359 | 0.0 | 5.0 | 0.00 | 0.00 | 0.00 | 90 | 1012.7 |
| 20260901084035 | 67 | 333 | 0.0 | 2.0 | 0.00 | 0.00 | 0.00 | 90 | 1012.7 |
| 20260901083535 | 67 | 46 | 1.0 | 5.0 | 0.00 | 0.00 | 0.00 | 90 | 1012.7 |
| 20260901083034 | 67 | 25 | 1.0 | 5.0 | 0.00 | 0.00 | 0.00 | 90 | 1012.7 |
| 20260901082800 | 67 | 350 | 0.0 | 3.0 | 0.00 | 0.00 | 0.00 | 90 | 1012.7 |
| 20260901082033 | 67 | 306 | 0.0 | 0.0 | 0.00 | 0.00 | 0.00 | 90 | 1012.7 |
| 20260901081803 | 67 | 253 | 0.0 | 0.0 | 0.00 | 0.00 | 0.00 | 90 | 1012.7 |
| 20260901081033 | 67 | 265 | 0.0 | 0.0 | 0.00 | 0.00 | 0.00 | 90 | 1012.6 |
| 20260901080533 | 67 | 267 | 0.0 | 0.0 | 0.00 | 0.00 | 0.00 | 90 | 1012.7 |
| 20260901080032 | 67 | 267 | 0.0 | 3.0 | 0.00 | 0.00 | 0.00 | 90 | 1012.7 |
| 20260901075534 | 67 | 270 | 0.0 | 3.0 | 0.00 | 0.00 | 0.00 | 90 | 1012.7 |
| 20260901075034 | 67 | 267 | 0.0 | 0.0 | 0.00 | 0.00 | 0.00 | 90 | 1012.7 |
| 20260901074533 | 68 | 278 | 0.0 | 0.0 | 0.00 | 0.00 | 0.00 | 89 | 1012.7 |
| 20260901074032 | 68 | 297 | 0.0 | 0.0 | 0.00 | 0.00 | 0.00 | 89 | 1012.7 |
| 20260901073534 | 68 | 288 | 0.0 | 3.0 | 0.00 | 0.00 | 0.00 | 89 | 1012.7 |
| 20260901073035 | 68 | 297 | 2.0 | 5.0 | 0.00 | 0.00 | 0.00 | 89 | 1012.8 |
| 20260901072803 | 68 | 283 | 3.0 | 5.0 | 0.00 | 0.00 | 0.00 | 89 | 1012.8 |
| 20260901072032 | 68 | 271 | 1.0 | 5.0 | 0.00 | 0.00 | 0.00 | 89 | 1012.9 |
| 20260901071533 | 68 | 281 | 3.0 | 3.0 | 0.00 | 0.00 | 0.00 | 89 | 1012.8 |
| 20260901071033 | 68 | 271 | 1.0 | 3.0 | 0.00 | 0.00 | 0.00 | 89 | 1012.9 |
| 20260901070531 | 68 | 291 | 3.0 | 3.0 | 0.00 | 0.00 | 0.00 | 89 | 1012.9 |
| 20260901070032 | 68 | 275 | 2.0 | 5.0 | 0.00 | 0.00 | 0.00 | 89 | 1013.0 |
| 20260901065533 | 68 | 270 | 2.0 | 5.0 | 0.00 | 0.00 | 0.00 | 89 | 1012.9 |
| 20260901065033 | 68 | 302 | 2.0 | 5.0 | 0.00 | 0.00 | 0.00 | 89 | 1012.8 |
| 20260901064754 | 68 | 279 | 2.0 | 5.0 | 0.00 | 0.00 | 0.00 | 89 | 1012.8 |
| 20260901064031 | 68 | 284 | 2.0 | 5.0 | 0.00 | 0.00 | 0.00 | 89 | 1012.7 |
| 20260901063532 | 68 | 291 | 2.0 | 3.0 | 0.00 | 0.00 | 0.00 | 89 | 1012.8 |
| 20260901063255 | 68 | 274 | 2.0 | 5.0 | 0.00 | 0.00 | 0.00 | 89 | 1012.7 |
| 20260901062530 | 68 | 283 | 1.0 | 5.0 | 0.00 | 0.00 | 0.00 | 88 | 1012.8 |
| 20260901062031 | 68 | 277 | 2.0 | 3.0 | 0.00 | 0.00 | 0.00 | 89 | 1012.9 |
| 20260901061532 | 68 | 273 | 0.0 | 3.0 | 0.00 | 0.00 | 0.00 | 88 | 1012.8 |
| 20260901061251 | 69 | 264 | 0.0 | 5.0 | 0.00 | 0.00 | 0.00 | 88 | 1012.7 |
| 20260901060530 | 69 | 262 | 0.0 | 5.0 | 0.00 | 0.00 | 0.00 | 87 | 1012.7 |
| 20260901060030 | 69 | 289 | 3.0 | 7.0 | 0.00 | 0.00 | 0.00 | 87 | 1012.7 |
| 20260901055530 | 69 | 270 | 2.0 | 7.0 | 0.00 | 0.00 | 0.00 | 87 | 1012.7 |
| 20260901055032 | 69 | 322 | 4.0 | 6.0 | 0.00 | 0.00 | 0.00 | 87 | 1012.7 |
| 20260901054530 | 69 | 298 | 4.0 | 6.0 | 0.00 | 0.00 | 0.00 | 86 | 1012.8 |
| 20260901054030 | 69 | 328 | 4.0 | 6.0 | 0.00 | 0.00 | 0.00 | 86 | 1012.8 |
| 20260901053529 | 69 | 324 | 3.0 | 6.0 | 0.00 | 0.00 | 0.00 | 86 | 1012.8 |
| 20260901053031 | 69 | 304 | 2.0 | 5.0 | 0.00 | 0.00 | 0.00 | 86 | 1012.8 |
| 20260901052530 | 69 | 298 | 3.0 | 6.0 | 0.00 | 0.00 | 0.00 | 86 | 1012.8 |
| 20260901052029 | 69 | 295 | 3.0 | 7.0 | 0.00 | 0.00 | 0.00 | 85 | 1012.6 |
| 20260901051529 | 69 | 289 | 6.0 | 7.0 | 0.00 | 0.00 | 0.00 | 85 | 1012.6 |
| 20260901051255 | 69 | 293 | 5.0 | 6.0 | 0.00 | 0.00 | 0.00 | 85 | 1012.5 |
| 20260901050529 | 69 | 281 | 3.0 | 6.0 | 0.00 | 0.00 | 0.00 | 85 | 1012.5 |
| 20260901050029 | 69 | 260 | 0.0 | 6.0 | 0.00 | 0.00 | 0.00 | 85 | 1012.5 |
| 20260901045529 | 69 | 272 | 3.0 | 6.0 | 0.00 | 0.00 | 0.00 | 85 | 1012.5 |
| 20260901045029 | 69 | 294 | 3.0 | 6.0 | 0.00 | 0.00 | 0.00 | 85 | 1012.5 |
| 20260901044530 | 69 | 272 | 3.0 | 6.0 | 0.00 | 0.00 | 0.00 | 85 | 1012.5 |
| 20260901043528 | 69 | 279 | 3.0 | 6.0 | 0.00 | 0.00 | 0.00 | 86 | 1012.5 |
| 20260901043029 | 69 | 278 | 0.0 | 6.0 | 0.00 | 0.00 | 0.00 | 86 | 1012.3 |
| 20260901042529 | 69 | 311 | 3.0 | 5.0 | 0.00 | 0.00 | 0.00 | 86 | 1012.3 |
| 20260901042248 | 69 | 298 | 4.0 | 5.0 | 0.00 | 0.00 | 0.00 | 86 | 1012.3 |
| 20260901041527 | 69 | 297 | 2.0 | 6.0 | 0.00 | 0.00 | 0.00 | 86 | 1012.4 |
| 20260901041245 | 69 | 277 | 5.0 | 7.0 | 0.00 | 0.00 | 0.00 | 86 | 1012.3 |
| 20260901040529 | 69 | 294 | 4.0 | 7.0 | 0.00 | 0.00 | 0.00 | 86 | 1012.3 |
| 20260901040027 | 69 | 16 | 2.0 | 6.0 | 0.00 | 0.00 | 0.00 | 86 | 1012.2 |
| 20260901035747 | 69 | 270 | 1.0 | 6.0 | 0.00 | 0.00 | 0.00 | 86 | 1012.2 |
| 20260901035028 | 69 | 278 | 1.0 | 6.0 | 0.00 | 0.00 | 0.00 | 86 | 1012.2 |
| 20260901034027 | 69 | 261 | 2.0 | 9.0 | 0.00 | 0.00 | 0.00 | 86 | 1012.2 |
| 20260901033527 | 69 | 320 | 3.0 | 9.0 | 0.00 | 0.00 | 0.00 | 86 | 1012.1 |
| 20260901033029 | 69 | 336 | 8.0 | 9.0 | 0.00 | 0.00 | 0.00 | 86 | 1012.0 |
| 20260901032528 | 69 | 316 | 7.0 | 9.0 | 0.00 | 0.00 | 0.00 | 85 | 1012.0 |
| 20260901032247 | 69 | 319 | 7.0 | 9.0 | 0.00 | 0.00 | 0.00 | 85 | 1011.9 |
| 20260901031526 | 69 | 342 | 6.0 | 9.0 | 0.00 | 0.00 | 0.00 | 85 | 1011.9 |
| 20260901031028 | 69 | 303 | 5.0 | 9.0 | 0.00 | 0.00 | 0.00 | 85 | 1011.8 |
| 20260901030749 | 69 | 277 | 3.0 | 7.0 | 0.00 | 0.00 | 0.00 | 85 | 1011.7 |
| 20260901030026 | 69 | 294 | 4.0 | 7.0 | 0.00 | 0.00 | 0.00 | 86 | 1011.8 |
| 20260901025526 | 69 | 258 | 1.0 | 5.0 | 0.00 | 0.00 | 0.00 | 86 | 1011.8 |